Location: Grand Rapids
(42.9630°N, 85.6680°W)
Time: 07:04:03
(UTC-04:00)

Tiros 1 - Pass Details

Date: 18 April 2025
Orbit: 620 x 652 km, 48.4° (Epoch: 13 May)

Event Time Altitude Azimuth Distance (km) Brightness Sun altitude
Exits shadow 05:55:21 - 196° (SSW) 2,512 9.8 -11.1°
Reaches altitude 10° 05:56:49 10° 187° (S) 2,043 9.4 -10.9°
Maximum altitude 06:00:28 22° 136° (SE) 1,399 9.1 -10.3°
Drops below altitude 10° 06:04:08 10° 85° (E) 2,055 11.0 -9.6°
Sets 06:06:53 0° 71° (ENE) 2,968 12.9 -9.2°
